Location: Kearney
(40.6990°N, 99.0810°W)
Time: 12:19:17
(UTC-05:00)

Daily predictions for brighter satellites

Satellite Brightness Start Highest point End
(mag) Time Altitude Azimuth Time Altitude Azimuth Time Altitude Azimuth
Cosmos 2333 Rocket 2.8 21:33:46 10° NNW 21:39:19 57° WSW 21:44:48 10° S
Okean 3 Rocket 4.4 21:39:25 10° SSE 21:43:25 32° E 21:47:25 10° NNE
Cosmos 2221 3.5 21:40:08 10° NNE 21:44:06 32° ENE 21:48:03 10° SE
Meteor 1-29 3.1 21:41:59 10° NNE 21:45:20 51° E 21:48:41 10° S
Envisat 3.3 21:45:11 10° S 21:50:14 70° WSW 21:55:20 10° NNW
USA 186 3.6 21:48:43 10° SSW 21:50:36 20° W 21:52:26 10° NW
SAR-Lupe-1 4.1 21:53:33 10° SSE 21:57:06 65° ENE 22:00:41 10° N
Cosmos 1242 Rocket 3.8 21:56:20 10° NNE 21:59:34 27° ENE 22:02:30 12° SE
Cosmos 1140 Rocket 3.6 21:56:24 10° SSW 22:01:34 82° WNW 22:06:45 10° NNE
USA 32 4.0 21:57:16 10° S 22:02:29 78° E 22:07:45 10° N
Cosmos 2082 4.3 21:58:07 10° SW 22:03:40 62° WNW 22:09:16 10° NNE
Cosmos 1570 Rocket 4.4 21:58:45 10° N 22:03:56 50° ENE 22:08:43 12° SE
Resurs 01 Rocket 4.1 22:03:29 10° SW 22:06:46 20° W 22:10:04 10° NW
Milstar 3 Cent rocket 4.2 22:01:04 10° WSW 22:07:29 35° S 22:18:44 11° ESE
Cosmos 1939 Rocket 3.7 22:05:08 10° S 22:09:00 49° W 22:12:56 10° NNW
Cosmos 2297 Rocket 2.9 22:04:42 10° SW 22:10:16 58° WNW 22:15:52 10° NNE
Cosmos 1867 3.6 22:11:31 10° SSW 22:16:49 56° ESE 22:22:09 10° NE
H-2A R/B 4.4 22:18:53 10° ENE 22:19:51 11° ENE 22:20:48 10° NE
Cosmos 1340 Rocket 3.4 22:15:55 10° SSW 22:19:53 61° W 22:23:55 10° N
MetOp-B 4.2 22:17:12 12° SSE 22:22:09 67° ENE 22:27:29 10° N
Cosmos 2263 Rocket 3.9 22:21:44 12° ESE 22:22:51 12° E 22:25:02 10° ENE
Cosmos 1300 4.4 22:20:29 10° NNE 22:23:17 19° ENE 22:25:01 14° ESE
Cosmos 1459 Rocket 4.1 22:17:42 10° N 22:23:59 66° E 22:29:37 13° SSE
Cosmos 2100 Rocket 4.1 22:17:50 10° N 22:24:08 71° E 22:30:08 12° SSE
Cosmos 2061 Rocket 4.2 22:18:48 10° N 22:25:08 61° E 22:30:42 14° SSE
YAOGAN 6 3.9 22:26:17 10° SSW 22:29:41 38° W 22:33:09 10° NNW
ATLAS 5 CENTAUR R/B 1.9 22:25:58 10° SW 22:30:35 78° NW 22:35:39 10° NNE
Cosmos 1726 3.2 22:28:32 10° NNE 22:31:47 29° ENE 22:33:27 20° ESE
Cosmos 2084 3.1 22:27:48 10° SSW 22:31:50 88° ESE 22:35:42 10° NE
SPOT 5 3.1 22:28:20 16° SSE 22:32:00 59° ENE 22:36:58 10° N
Helios 1B rocket 4.3 22:29:35 10° N 22:33:18 32° WNW 22:37:00 10° SW
Cosmos 1850 Rocket 4.2 22:28:23 10° SSW 22:33:33 74° WNW 22:38:45 10° NNE
Lacrosse 5 2.9 22:29:18 10° NNW 22:34:01 37° NE 22:38:08 13° E
Cosmos 2123 Rocket 4.5 22:30:34 15° SSE 22:35:15 41° E 22:41:00 10° NNE
Cosmos 2173 Rocket 4.0 22:31:03 10° N 22:37:15 82° E 22:42:44 14° S
Cosmos 2237 Rocket 4.0 22:34:26 10° NW 22:39:00 26° WSW 22:43:33 10° SSW
Cosmos 371 Rocket 4.4 22:37:28 10° N 22:41:44 30° ENE 22:44:22 18° ESE
Abrixas rocket 4.2 22:41:42 10° NW 22:44:26 24° NNE 22:47:12 10° ENE
H-2A R/B 2.4 22:41:24 20° SE 22:44:59 56° ENE 22:50:17 10° N
USA 234 3.2 22:39:08 10° NE 22:45:42 79° SE 22:52:14 10° SW
Cosmos 1603 4.1 22:40:16 10° NNW 22:45:47 51° ENE 22:49:18 22° SE
ERS-1 Rocket 3.6 22:41:43 10° S 22:46:32 54° W 22:51:29 10° NNW
Atlas Centaur 2 3.1 22:47:56 10° SW 22:49:18 13° SSW 22:49:18 13° SSW
Cosmos 1674 3.4 22:48:08 10° SSW 22:51:49 51° W 22:55:29 10° N
Cosmos 1908 3.9 22:48:35 10° NNW 22:52:22 52° W 22:55:15 16° SSW
Cosmos 1818 3.9 22:48:00 10° NW 22:53:22 61° WSW 22:56:55 21° SSE
Cosmos 1802 Rocket 4.0 22:49:57 10° N 22:56:07 84° W 23:00:59 17° S
Cosmos 1725 Rocket 4.1 22:52:35 10° N 22:58:48 61° E 23:02:34 24° SSE
Cosmos 220 Rocket 4.4 22:57:31 27° SSE 22:59:24 43° ESE 23:03:35 10° NNE
Landsat 7 4.1 22:59:49 27° SE 23:02:12 56° ENE 23:06:51 10° N
KORONAS-FOTON 4.3 22:59:18 13° SSW 23:02:31 59° W 23:06:17 10° N
SL-16 R/B 3.2 22:57:28 10° NW 23:02:44 40° WSW 23:07:03 15° S
Cosmos 1943 4.1 22:57:44 10° N 23:02:56 36° ENE 23:05:59 21° ESE
Cosmos 1408 Rocket 3.7 23:00:39 14° SSW 23:04:14 70° W 23:08:33 10° N
ARGOS 3.5 23:01:49 18° S 23:05:53 62° WSW 23:11:17 10° NNW
Tiangong 1 1.4 23:03:57 10° W 23:06:42 53° N 23:07:55 27° ENE
Cosmos 2058 3.6 23:15:04 33° ESE 23:15:44 36° E 23:19:36 10° NNE
Cosmos 1703 4.4 23:16:14 28° E 23:16:25 28° E 23:19:51 10° NNE
Terra 2.1 23:15:15 33° SE 23:17:08 55° ENE 23:21:48 10° N
Cosmos 1356 4.2 23:18:00 36° E 23:18:00 36° E 23:21:10 10° NNE
DMSP B5D2-2 4.0 23:12:49 10° NNE 23:18:03 73° ESE 23:21:02 26° S
Cosmos 1500 Rocket 3.6 23:22:20 39° SSE 23:23:51 66° E 23:28:16 10° NNE
Meteor 1-11 4.3 23:22:53 30° SSE 23:25:43 63° E 23:31:28 10° NNE
ERBS 3.3 23:24:03 10° NNW 23:27:14 37° NE 23:27:57 33° ENE
Cosmos 2016 Rocket 4.5 23:21:43 10° NNW 23:27:49 56° W 23:32:11 19° SSW
Cosmos 332 Rocket 3.9 23:26:29 10° NNW 23:31:23 73° WSW 23:33:15 38° S
Cosmos 2151 3.0 23:30:35 47° SSE 23:31:37 66° E 23:35:54 10° NNE
CARTOSAT-1 3.5 23:32:40 47° SSE 23:33:53 83° ENE 23:38:12 10° N
RESURS DK-1 2.6 23:30:07 10° NNW 23:34:15 63° WSW 23:35:16 46° S
SME Rocket 4.3 23:34:18 25° E 23:35:09 27° ENE 23:38:51 10° N
Cosmos 1814 Rocket 4.0 23:31:00 10° NNW 23:36:22 79° WSW 23:38:25 39° S
CZ-2C R/B 4.5 23:34:23 10° ENE 23:37:05 14° E 23:37:05 14° E
SPOT 1/Viking Rocket 4.4 23:37:13 23° SSW 23:39:59 43° W 23:44:53 10° NNW
Cosmos 1486 Rocket 3.9 23:37:20 28° SSW 23:40:11 89° ESE 23:45:31 10° NNE
Meteor 1-27 4.2 23:34:44 10° N 23:40:35 77° E 23:42:49 39° SSE
Spot 4 4.3 23:39:25 38° ESE 23:40:46 49° ENE 23:45:27 10° N
Cosmos 304 Rocket 4.5 23:43:17 10° N 23:47:50 41° ENE 23:48:57 35° E
Cosmos 1328 Rocket 4.4 23:44:17 10° NNW 23:48:22 42° W 23:49:54 30° SW
Cosmos 841 Rocket 3.4 23:44:31 10° NNW 23:49:48 84° ENE 23:51:18 48° SSE
Cosmos 2228 Rocket 3.9 23:45:53 10° NNW 23:50:17 46° W 23:51:58 31° SW
Cosmos 1515 Rocket 4.0 23:47:48 10° NNW 23:52:02 54° W 23:53:11 40° SW
Cosmos 1763 Rocket 3.5 23:48:06 10° NNW 23:53:12 71° WSW 23:54:37 46° S
Cosmos 2233 Rocket 3.9 23:47:06 10° N 23:53:20 82° W 23:55:56 37° S
H-2A R/B 2.1 23:54:27 56° SSW 23:55:16 75° WSW 23:59:33 10° NNW
